Location: Newark
(15.4608°S, 41.1635°W)
Time: 00:28:53
(UTC+00:00)

Vanguard 2 Rocket - All Passes

Search period start: 31 July 2021 00:00
Search period end: 10 August 2021 00:00
Orbit: 555 x 3325 km, 32.9° (Epoch: 30 July)

Date Brightness Start Highest point End Pass type
(mag) Time Alt. Az. Time Alt. Az. Time Alt. Az.
31 Jul - 01:46:01 10° WSW 02:04:22 47° SSE 02:16:20 10° E visible
31 Jul - 04:06:38 10° WSW 04:22:19 85° SSE 04:30:51 10° ENE night (unlit)
31 Jul - 06:27:49 10° W 06:35:45 24° NW 06:41:05 10° N visible
31 Jul - 17:49:42 10° NNW 18:00:55 48° NE 18:18:25 10° ESE daylight
31 Jul - 20:02:47 10° WNW 20:18:03 77° SSW 20:38:50 10° ESE daylight
31 Jul - 22:20:50 10° W 22:39:08 49° SSW 22:57:25 10° ESE visible
01 Aug - 00:42:29 10° WSW 01:01:32 45° S 01:15:29 10° ESE visible
01 Aug - 03:03:34 10° WSW 03:21:11 68° SSE 03:31:19 10° ENE visible
01 Aug - 05:24:06 10° WSW 05:36:15 44° NW 05:43:19 10° NNE visible
01 Aug - 16:51:22 10° NNW 17:00:23 31° NE 17:14:03 10° E daylight
01 Aug - 19:02:32 10° NW 19:15:49 87° NNE 19:36:08 10° ESE daylight
01 Aug - 21:18:39 10° W 21:35:37 54° SSW 21:55:20 10° ESE visible
01 Aug - 23:39:06 10° WSW 23:58:08 44° S 00:14:06 10° ESE visible
02 Aug - 02:00:22 10° WSW 02:19:19 57° SSE 02:31:14 10° E visible
02 Aug - 04:20:46 10° WSW 04:36:13 68° NW 04:44:45 10° NE night (unlit)
02 Aug - 06:45:07 10° WNW 06:48:59 13° NW 06:52:13 10° NNW visible
02 Aug - 15:54:20 10° NNE 16:00:19 17° NE 16:08:15 10° E daylight
02 Aug - 18:03:01 10° NW 18:14:20 68° NE 18:33:00 10° ESE daylight
02 Aug - 20:17:17 10° WNW 20:32:29 63° SSW 20:52:54 10° ESE visible
02 Aug - 22:36:09 10° WSW 22:54:25 45° S 23:12:13 10° ESE visible
03 Aug - 00:57:10 10° WSW 01:16:42 51° SSE 01:30:34 10° E visible
03 Aug - 03:17:34 10° WSW 03:35:26 89° SSE 03:45:35 10° ENE visible
03 Aug - 05:39:25 10° W 05:49:31 27° NW 05:56:05 10° N visible
03 Aug - 17:04:08 10° NNW 17:13:37 47° NE 17:29:21 10° ESE daylight
03 Aug - 19:16:42 10° WNW 19:29:56 74° SSW 19:50:11 10° ESE daylight
03 Aug - 21:33:48 10° W 21:50:43 48° S 22:09:53 10° ESE visible
03 Aug - 23:54:06 10° WSW 00:13:29 47° S 00:29:16 10° E visible
04 Aug - 02:14:27 10° WSW 02:33:53 72° SSE 02:45:50 10° ENE visible
04 Aug - 04:35:18 10° WSW 04:49:41 46° NW 04:58:08 10° NNE night (unlit)
04 Aug - 16:06:03 10° N 16:13:32 29° NE 16:25:04 10° E daylight
04 Aug - 18:16:46 10° WNW 18:28:07 89° NNE 18:47:10 10° ESE daylight
04 Aug - 20:32:10 10° W 20:47:19 52° SSW 21:07:11 10° ESE visible
04 Aug - 22:51:21 10° WSW 23:09:50 45° S 23:27:20 10° ESE visible
05 Aug - 01:11:29 10° WSW 01:31:35 61° SSE 01:45:28 10° E visible
05 Aug - 03:31:43 10° WSW 03:49:15 68° NW 03:59:25 10° NE night (unlit)
05 Aug - 05:56:21 10° W 06:02:44 16° NW 06:07:40 10° NNW visible
05 Aug - 15:09:30 10° NNE 15:13:51 15° NE 15:19:21 10° E daylight
05 Aug - 17:17:30 10° NW 17:27:04 68° NE 17:43:55 10° ESE daylight
05 Aug - 19:31:15 10° W 19:44:27 60° SSW 20:04:15 10° ESE daylight
05 Aug - 21:49:02 10° WSW 22:06:03 45° S 22:24:48 10° ESE visible
06 Aug - 00:08:43 10° WSW 00:28:37 53° SSE 00:44:24 10° E visible
06 Aug - 02:28:29 10° WSW 02:48:04 89° NNW 03:00:02 10° ENE visible
06 Aug - 04:50:37 10° W 05:02:55 30° NW 05:10:55 10° N visible
06 Aug - 16:18:49 10° NNW 16:26:46 45° NE 16:40:23 10° ESE daylight
06 Aug - 18:30:59 10° WNW 18:42:18 71° SSW 19:01:11 10° ESE daylight
06 Aug - 20:47:17 10° WSW 21:02:28 46° S 21:21:49 10° ESE visible
06 Aug - 23:06:14 10° WSW 23:25:09 48° S 23:42:36 10° E visible
07 Aug - 01:25:34 10° WSW 01:46:05 75° SSE 02:00:01 10° ENE visible
07 Aug - 03:46:17 10° WSW 04:02:41 48° NW 04:12:45 10° NNE night (unlit)
07 Aug - 15:20:57 10° N 15:27:04 26° NE 15:36:23 10° E daylight
07 Aug - 17:31:21 10° WNW 17:40:53 88° SW 17:58:04 10° ESE daylight
07 Aug - 19:46:09 10° W 19:59:21 50° SSW 20:18:35 10° ESE daylight
07 Aug - 22:04:07 10° WSW 22:21:27 45° S 22:40:02 10° ESE visible
08 Aug - 00:22:59 10° WSW 00:43:26 63° SSE 00:59:18 10° ENE visible
08 Aug - 02:42:40 10° WSW 03:01:48 68° NW 03:13:48 10° NE visible
08 Aug - 05:07:23 10° W 05:16:09 18° NW 05:22:43 10° N night (unlit)
08 Aug - 14:25:11 10° NNE 14:27:41 12° NE 14:30:35 10° ENE daylight
08 Aug - 16:32:15 10° NW 16:40:16 68° NE 16:54:56 10° ESE daylight
08 Aug - 18:45:36 10° W 18:56:54 56° SSW 19:15:16 10° ESE daylight
08 Aug - 21:02:26 10° WSW 21:17:48 44° S 21:36:52 10° ESE visible
08 Aug - 23:20:45 10° WSW 23:40:13 55° SSE 23:57:46 10° E visible
09 Aug - 01:39:36 10° WSW 02:00:11 87° NNW 02:14:09 10° NE visible
09 Aug - 04:01:35 10° WSW 04:15:56 32° NW 04:25:31 10° NNE night (unlit)
09 Aug - 15:33:43 10° NNW 15:40:21 43° NE 15:51:43 10° ESE daylight
09 Aug - 17:45:38 10° WNW 17:55:10 66° SSW 18:12:04 10° ESE daylight
09 Aug - 20:01:14 10° WSW 20:14:32 44° S 20:33:17 10° ESE daylight
09 Aug - 22:18:53 10° WSW 22:36:42 49° SSE 22:55:23 10° E visible
